TimeHST,TemperatureF,Dew PointF,Humidity,Sea Level PressureIn,VisibilityMPH,Wind Direction,Wind SpeedMPH,Gust SpeedMPH,PrecipitationIn,Events,Conditions,WindDirDegrees,DateUTC
12:53 AM,71.1,61.0,70,30.16,10.0,ENE,12.7,-,N/A,,Mostly Cloudy,70,2013-02-03 10:53:00
1:53 AM,70.0,61.0,73,30.15,10.0,ENE,11.5,-,N/A,,Overcast,60,2013-02-03 11:53:00
2:53 AM,70.0,61.0,73,30.14,10.0,ENE,10.4,-,N/A,,Mostly Cloudy,60,2013-02-03 12:53:00
3:00 AM,69.8,60.8,73,30.14,10.0,NE,9.2,-,N/A,,Overcast,50,2013-02-03 13:00:00
3:14 AM,69.8,60.8,73,30.14,10.0,NE,10.4,-,N/A,,Overcast,50,2013-02-03 13:14:00
3:21 AM,69.8,60.8,73,30.14,10.0,NE,9.2,-,N/A,,Overcast,50,2013-02-03 13:21:00
3:53 AM,70.0,61.0,73,30.14,10.0,NE,9.2,-,N/A,,Overcast,50,2013-02-03 13:53:00
4:53 AM,70.0,61.0,73,30.14,10.0,NE,9.2,-,N/A,,Overcast,50,2013-02-03 14:53:00
5:53 AM,70.0,61.0,73,30.15,10.0,NE,9.2,-,N/A,,Overcast,50,2013-02-03 15:53:00
6:53 AM,70.0,60.1,71,30.17,10.0,NE,10.4,-,N/A,,Overcast,50,2013-02-03 16:53:00
7:50 AM,69.8,60.8,73,30.19,10.0,ENE,9.2,-,N/A,,Overcast,60,2013-02-03 17:50:00
7:53 AM,70.0,61.0,73,30.19,10.0,ENE,9.2,-,N/A,,Overcast,60,2013-02-03 17:53:00
8:05 AM,71.6,60.8,69,30.20,10.0,NE,10.4,-,N/A,,Overcast,40,2013-02-03 18:05:00
8:20 AM,71.6,60.8,69,30.20,10.0,NE,12.7,-,N/A,,Overcast,50,2013-02-03 18:20:00
8:27 AM,71.6,60.8,69,30.20,10.0,NE,11.5,-,N/A,,Overcast,50,2013-02-03 18:27:00
8:53 AM,71.1,60.1,68,30.20,10.0,NE,10.4,-,N/A,,Overcast,50,2013-02-03 18:53:00
9:53 AM,73.0,62.1,68,30.20,10.0,ENE,11.5,-,N/A,,Overcast,70,2013-02-03 19:53:00
10:53 AM,73.0,61.0,66,30.20,10.0,ENE,13.8,-,N/A,,Overcast,70,2013-02-03 20:53:00
11:53 AM,73.0,60.1,64,30.19,10.0,ENE,12.7,-,N/A,,Overcast,60,2013-02-03 21:53:00
12:53 PM,73.9,60.1,62,30.17,10.0,NE,13.8,-,N/A,,Overcast,40,2013-02-03 22:53:00
1:36 PM,73.4,60.8,65,30.16,10.0,NNE,15.0,-,N/A,,Overcast,30,2013-02-03 23:36:00
1:46 PM,73.4,60.8,65,30.15,10.0,NE,15.0,-,N/A,,Overcast,40,2013-02-03 23:46:00
1:53 PM,73.0,60.1,64,30.15,10.0,NE,15.0,-,N/A,,Overcast,50,2013-02-03 23:53:00
2:53 PM,73.0,59.0,61,30.14,10.0,NNE,15.0,-,N/A,,Overcast,30,2013-02-04 00:53:00
3:53 PM,73.0,60.1,64,30.14,10.0,NNE,18.4,-,N/A,,Overcast,30,2013-02-04 01:53:00
4:53 PM,72.0,57.9,61,30.14,10.0,NE,17.3,-,N/A,,Overcast,40,2013-02-04 02:53:00
5:53 PM,72.0,57.9,61,30.16,10.0,NNE,18.4,-,N/A,,Overcast,30,2013-02-04 03:53:00
6:53 PM,70.0,55.9,61,30.17,10.0,NNE,18.4,-,N/A,,Overcast,30,2013-02-04 04:53:00
7:53 PM,71.1,57.9,63,30.18,10.0,NE,21.9,-,N/A,,Overcast,50,2013-02-04 05:53:00
8:53 PM,70.0,57.0,63,30.19,10.0,NE,15.0,-,N/A,,Overcast,40,2013-02-04 06:53:00
9:53 PM,70.0,57.0,63,30.20,10.0,ENE,19.6,-,N/A,,Overcast,60,2013-02-04 07:53:00
10:53 PM,70.0,57.0,63,30.20,10.0,NE,18.4,-,N/A,,Overcast,40,2013-02-04 08:53:00